FENGYUN 1C DEB

Satellite information

Favourite Embed

Satellite Type and Status

DEBRISIN ORBIT

Key statistics

Satellite FENGYUN 1C DEB at a glance.

Uptime

9556

Days in orbit

Revolutions

≈ 14.0

Per day

Orbit

SSO

Sun Synchronous Orbit

Inclination

99.1

Latest

Satellite identification and parameters

Extended collection of information and parameters for FENGYUN 1C DEB.

Object identification

Identified? True

Debris? True

Object name: FENGYUN 1C DEB

International designator: 1999-025CXZ

Object number (NORAD): 32332

Object ID (CCSDS): 32332

Country: PEOPLES REPUBLIC OF CHINA (PRC)

Current information (Y/N): Y

RCS size: SMALL

Orbital parameters

Period: 103.137 minutes

Inclination: 99.1434 deg

SMA: 7285.132 km

Apoapsis: 1117.129 km

Periapsis: 696.865 km

RAAN: 243.775 deg

Eccentricy: 0.028844

Argument of periapsis: 25.9275 deg

Mean anomaly: 335.6021 deg

Mean motion: 13.96196798 rev/day

Mean motion (dot): 0.00001277 rev/day2

B* drag term: 0.00067722 1/REarth

Two-line elements (TLE)

Creation date: July 8, 2025, 2:27 a.m.

Reference frame: TEME

Reference center: EARTH

Epoch: July 7, 2025, 9:38 p.m. UTC

TLE line 0: 0 FENGYUN 1C DEB

TLE line 1: 1 32332U 99025CXZ 25188.90152025 .00001277 00000-0 67722-3 0 9990

TLE line 2: 2 32332 99.1434 243.7750 0288440 25.9275 335.6021 13.96196798908331

Live tracking on map

Real-time ground track for satellite FENGYUN 1C DEB.

In-orbit conjunctions

A list of the most updated potential collisions computed for object FENGYUN 1C DEB.

Target Orbit TCA Probability of collision Miss distance Type
COSMOS 2180 LEO 2025-05-25 21:06:21 0.0001615109 136.0 (m) PAYLOAD
CZ-6A DEB SSO 2024-11-12 03:34:18 0.0006611213 186.0 (m) DEBRIS
SL-8 DEB * LEO 2024-09-25 14:58:52 0.006285188 108.0 (m) DEBRIS

Associated space launch

Chinese polar orbiting meteorological satellite

FENGYUN 1C DEB was lifted into orbit during the mission ‘Long March 4B | Feng Yun 1C’, on board a Long March 4B space rocket.

The launch took place on May 10, 1999, 1:33 a.m. from Launch Complex 7.

For more information about the launch, click the button.

Launch to space Long March 4B | Feng Yun 1C
Long March 4B | Feng Yun 1C

Agency: N/A

Status: Launch Successful

Launch date: May 10, 1999, 1:33 a.m. UTC

Rocket: Long March 4B

Launch pad: Launch Complex 7

Location: Taiyuan Satellite Launch Center, People's Republic of China

...

Latest news about this satellite

There are no fresh news available about this satellite. Check back as we update our databases every day.


Newsletter sign-up

Weekly statistics, charts and insights to help you stay on top of the space industry.